Hourly Data Report for June 29, 2021

FISHER BRANCH (AUT)
MANITOBA
Current Station Operator: ECCC - MSC

51°05'00.100" N
97°33'16.200" W
253.00 m
50309J6
71442
WSZ

Download Data

Hourly Data (June 2021)
Hourly Data Report for June 29, 2021
TIME
LST
Temp Definition
°C
Dew Point Definition
°C
Rel Hum Definition
%
Precip. Amount Definition
mm

Wind Dir Definition
10's deg

Wind Spd Definition
km/h
Visibility Definition
km
Stn Press Definition
kPa
Hmdx Definition


Wind Chill Definition


Weather Definition


00:00 11.8 9.6 86 0.0 30 1   98.94     LegendNANA
01:00 11.2 9.1 86 0.0 14 4   98.90     LegendNANA
02:00 11.5 8.7 83 0.0 27 2   98.91     LegendNANA
03:00 9.6 7.7 88 0.0 20 3   98.90     LegendNANA
04:00 10.9 8.0 82 0.0 25 4   98.88     LegendNANA
05:00 11.6 8.7 82 0.0 21 4   98.86     LegendNANA
06:00 12.7 10.2 85 0.0 0 1   98.88     LegendNANA
07:00 14.6 11.2 80 0.0 19 3   98.88     LegendNANA
08:00 18.0 12.8 71 0.0 20 3   98.89     LegendNANA
09:00 23.6 12.9 51 0.0 19 7   98.86 26   LegendNANA
10:00 25.3 11.1 41 0.0 26 8   98.82 27   LegendNANA
11:00 27.0 9.6 34 0.0 26 9   98.80 28   LegendNANA
12:00 28.0 10.3 33 0.0 35 6   98.76 29   LegendNANA
13:00 29.0 10.7 32 0.0 29 6   98.73 31   LegendNANA
14:00 29.9 10.4 30 0.0 28 9   98.70 31   LegendNANA
15:00 28.9 9.9 31 0.0 26 12   98.69 30   LegendNANA
16:00 28.7 10.4 32 0.0 29 12   98.69 30   LegendNANA
17:00 30.3 10.7 30 0.0 27 13   98.65 32   LegendNANA
18:00 29.3 11.2 33 0.0 28 11   98.63 31   LegendNANA
19:00 27.4 13.2 42 0.0 29 8   98.62 30   LegendNANA
20:00 26.2 13.2 45 0.0 29 5   98.62 29   LegendNANA
21:00 23.7 14.9 58 0.0 32 7   98.68 28   LegendNANA
22:00 20.5 16.5 78 0.0 18 2   98.66 25   LegendNANA
23:00 21.0 16.9 78 0.0 19 6   98.75 26   LegendNANA

Notes on Data Quality.

Legend

  • E = Estimated
  • M = Missing
  • NA = Not Available*
  • [empty] = Indicates an unobserved value
Date modified: